Location: Mercogliano
(40.9167°N, 14.7333°E)
Time: 07:06:43
(UTC+00:00)

CZ-2C R/B - Pass Details

Date: 18 January 2021
Orbit: 785 x 870 km, 98.2° (Epoch: 08 March)

Event Time Altitude Azimuth Distance (km) Brightness Sun altitude
Rises 04:19:38 0° 131° (SE) 3,270 6.7 -22.8°
Reaches altitude 10° 04:22:18 10° 117° (ESE) 2,352 6.0 -22.3°
Maximum altitude 04:26:24 24° 65° (ENE) 1,596 4.7 -21.6°
Drops below altitude 10° 04:30:34 10° 13° (NNE) 2,396 5.1 -20.8°
Sets 04:33:19 0° 360° (N) 3,345 5.7 -20.3°
